Washington, VA

12:57 PM EDT on May 26, 2017 (GMT -0400)
Ronald Reagan Washington National

Weather History for KDCA - December, 2012

Change the Weather History Date:

Wednesday, December 26, 2012

  Actual Average Record
Temperature  
Mean Temperature 39 °F 37 °F  
Max Temperature 45 °F 44 °F 72 °F (1889)
Min Temperature 33 °F 30 °F 4 °F (1935)
Degree Days  
Heating Degree Days 26 28  
Month to date heating degree days 470 644  
Since 1 July heating degree days 1181 1339  
Cooling Degree Days 0 0  
Month to date cooling degree days 0 0  
Year to date cooling degree days 1975 1549  
Moisture  
Dew Point 33 °F    
Average Humidity 78    
Maximum Humidity 92    
Minimum Humidity 64    
Precipitation  
Precipitation 1.42 in 0.09 in 1.42 in (2012)
Month to date precipitation 2.83 2.62  
Year to date precipitation 32.25 39.31  
Snow  
Snow 0.20 in 0.10 in 10.00 in (1890)
Month to date snowfall 0.2 1.8  
Since 1 July snowfall 0.2 2.3  
Snow Depth 0.00 in    
Sea Level Pressure  
Sea Level Pressure 29.83 in    
Wind  
Wind Speed 13 mph (NNE)    
Max Wind Speed 24 mph    
Max Gust Speed 31 mph    
Visibility 5 miles    
Events Rain , Snow    
T = Trace of Precipitation, MM = Missing Value Source: NWS Daily Summary

Daily Weather History Graph

Daily Weather History Graph

Search for Another Location

Airport or City:

Trip Planner

Search our weather history database for the weather conditions in past years. The results will help you decide how hot, cold, wet, or windy it might be!

Date:

Astronomy

Dec. 26, 2012 Rise Set
Actual Time 7:25 AM EST 4:52 PM EST
Civil Twilight 6:55 AM EST 5:22 PM EST
Nautical Twilight 6:21 AM EST 5:56 PM EST
Astronomical Twilight 5:49 AM EST 6:28 PM EST
Moon 3:44 PM EST 5:47 AM EST
Length of Visible Light 10h 27m
Length of Day
9h 27m
Waxing Gibbous, 97% of the Moon is Illuminated
Dec 26
Waxing Gibbous
Dec 28
Full
Jan 4
Last Quarter
Jan 11
New
Jan 18
First Quarter

Hourly Weather History & Observations

Time (EST) Temp. Windchill Dew Point Humidity Pressure Visibility Wind Dir Wind Speed Gust Speed Precip Events Conditions
12:52 AM 39.2 °F 31.6 °F 28.4 °F 65% 30.27 in 10.0 mi ENE 12.7 mph - N/A   Overcast
1:52 AM 37.9 °F 29.2 °F 27.0 °F 65% 30.25 in 10.0 mi NE 15.0 mph - N/A   Overcast
2:52 AM 37.0 °F 28.1 °F 28.0 °F 70% 30.24 in 10.0 mi NE 15.0 mph - N/A   Overcast
3:52 AM 36.0 °F 26.7 °F 27.0 °F 70% 30.21 in 10.0 mi ENE 15.0 mph - N/A   Mostly Cloudy
4:52 AM 35.1 °F 26.9 °F 27.0 °F 72% 30.19 in 10.0 mi NE 11.5 mph - N/A   Overcast
5:52 AM 35.1 °F 27.9 °F 26.1 °F 70% 30.20 in 10.0 mi NE 9.2 mph - N/A   Overcast
6:52 AM 34.0 °F 27.2 °F 28.0 °F 79% 30.19 in 2.0 mi NE 8.1 mph - 0.00 in Snow Light Snow
7:12 AM 33.8 °F 26.4 °F 28.4 °F 81% 30.18 in 1.5 mi NE 9.2 mph - 0.00 in Snow Light Snow
7:26 AM 33.8 °F 25.8 °F 30.2 °F 87% 30.16 in 1.0 mi NE 10.4 mph - 0.01 in Snow Light Snow
7:35 AM 33.8 °F 24.3 °F 30.2 °F 87% 30.13 in 1.0 mi NE 13.8 mph - 0.02 in Snow Light Snow
7:39 AM 33.8 °F 23.5 °F 30.2 °F 87% 30.11 in 1.0 mi NE 16.1 mph - 0.02 in Snow Light Snow
7:49 AM 33.8 °F 23.2 °F 30.2 °F 87% 30.09 in 0.8 mi NE 17.3 mph - 0.05 in Snow Light Snow
7:52 AM 33.1 °F 21.5 °F 30.0 °F 89% 30.07 in 0.8 mi NE 19.6 mph - 0.06 in Snow Light Snow
7:54 AM 33.8 °F 22.5 °F 30.2 °F 87% 30.07 in 0.8 mi NE 19.6 mph - 0.01 in Snow Light Snow
7:59 AM 33.8 °F 22.8 °F 30.2 °F 87% 30.08 in 2.0 mi NE 18.4 mph - 0.02 in Rain , Snow Light Rain
8:05 AM 33.8 °F 24.3 °F 30.2 °F 87% 30.09 in 4.0 mi NE 13.8 mph - 0.03 in Rain , Snow Light Rain
8:24 AM 33.8 °F 27.0 °F 30.2 °F 87% 30.10 in 4.0 mi East 8.1 mph - 0.04 in Rain , Snow Light Rain
8:49 AM 33.8 °F 25.8 °F 30.2 °F 87% 30.11 in 4.0 mi East 10.4 mph - 0.07 in Rain , Snow Light Rain
8:52 AM 34.0 °F 25.5 °F 30.0 °F 85% 30.11 in 4.0 mi ENE 11.5 mph - 0.07 in Rain , Snow Light Rain
9:03 AM 33.8 °F 24.3 °F 30.2 °F 87% 30.10 in 1.5 mi ENE 13.8 mph - 0.00 in Snow Light Snow
9:15 AM 33.8 °F 24.3 °F 30.2 °F 87% 30.09 in 4.0 mi ENE 13.8 mph - 0.02 in Snow Light Snow
9:45 AM 33.8 °F 25.3 °F 30.2 °F 87% 30.08 in 5.0 mi NE 11.5 mph - 0.05 in Rain , Snow Light Rain
9:52 AM 34.0 °F 25.0 °F 30.0 °F 85% 30.08 in 5.0 mi NE 12.7 mph - 0.05 in Rain Light Rain
10:41 AM 33.8 °F 23.9 °F 30.2 °F 87% 30.02 in 4.0 mi NE 15.0 mph - 0.06 in Rain Light Rain
10:52 AM 34.0 °F 22.7 °F 30.9 °F 89% 29.99 in 3.0 mi NE 19.6 mph 25.3 mph 0.08 in Rain Light Rain
11:52 AM 35.1 °F 24.8 °F 30.9 °F 85% 29.93 in 4.0 mi ENE 17.3 mph - 0.12 in Rain Rain
12:40 PM 35.6 °F 26.6 °F 32.0 °F 87% 29.87 in 2.5 mi NE 13.8 mph - 0.13 in Rain Rain
12:52 PM 35.1 °F 25.9 °F 32.0 °F 89% 29.86 in 2.5 mi NE 13.8 mph - 0.19 in Rain Rain
1:36 PM 35.6 °F 26.6 °F 33.8 °F 93% 29.79 in 4.0 mi NE 13.8 mph - 0.14 in Rain Rain
1:52 PM 36.0 °F 28.5 °F 33.1 °F 89% 29.77 in 4.0 mi NE 10.4 mph 19.6 mph 0.17 in Rain Light Rain
2:52 PM 37.0 °F 28.1 °F 34.0 °F 89% 29.68 in 4.0 mi NE 15.0 mph - 0.04 in Rain Light Rain
3:19 PM 37.4 °F 29.3 °F 35.6 °F 93% 29.66 in 5.0 mi NE 12.7 mph - N/A Rain Light Rain
3:35 PM 39.2 °F 30.8 °F 35.6 °F 87% 29.63 in 4.0 mi NE 15.0 mph - 0.09 in Rain Rain
3:52 PM 39.0 °F 31.0 °F 36.0 °F 89% 29.62 in 4.0 mi NNE 13.8 mph - 0.17 in Rain Rain
4:01 PM 39.2 °F 30.8 °F 37.4 °F 93% 29.60 in 2.5 mi NNE 15.0 mph 20.7 mph 0.06 in Rain Heavy Rain
4:06 PM 39.2 °F 29.8 °F 37.4 °F 93% 29.59 in 1.8 mi NNE 18.4 mph - 0.16 in Rain Heavy Rain
4:10 PM 39.2 °F 29.6 °F 37.4 °F 93% 29.57 in 2.0 mi NNE 19.6 mph - 0.19 in Rain Heavy Rain
4:15 PM 39.2 °F 29.8 °F 37.4 °F 93% 29.56 in 3.0 mi NNE 18.4 mph - 0.22 in Rain Rain
4:19 PM 39.2 °F 30.2 °F 37.4 °F 93% 29.56 in 2.5 mi NNE 17.3 mph - 0.23 in Rain Rain
4:36 PM 39.2 °F 29.6 °F 37.4 °F 93% 29.52 in 3.0 mi NE 19.6 mph - 0.28 in Rain Light Rain
4:42 PM 39.2 °F 29.6 °F 37.4 °F 93% 29.52 in 4.0 mi NE 19.6 mph 26.5 mph 0.29 in Rain Light Rain
4:52 PM 39.9 °F 31.8 °F 37.0 °F 89% 29.51 in 7.0 mi NE 15.0 mph - 0.29 in Rain Light Rain
5:52 PM 41.0 °F 33.9 °F 39.0 °F 93% 29.48 in 5.0 mi North 12.7 mph - 0.04 in Rain Light Rain
6:52 PM 42.1 °F 37.1 °F 39.9 °F 92% 29.44 in 7.0 mi North 8.1 mph - 0.02 in Rain Light Rain
7:52 PM 44.1 °F 38.1 °F 41.0 °F 89% 29.41 in 7.0 mi NW 11.5 mph - 0.02 in Rain Light Rain
8:07 PM 44.6 °F 39.2 °F 42.8 °F 93% 29.41 in 2.5 mi NW 10.4 mph - 0.03 in Rain Rain
8:15 PM 44.6 °F 39.2 °F 42.8 °F 93% 29.41 in 3.0 mi NW 10.4 mph - 0.05 in Rain Light Rain
8:52 PM 42.1 °F 35.2 °F 39.0 °F 89% 29.40 in 10.0 mi WNW 12.7 mph - 0.06 in   Overcast
9:52 PM 39.0 °F 32.8 °F 36.0 °F 89% 29.40 in 7.0 mi WNW 9.2 mph - 0.02 in   Overcast
10:11 PM 39.2 °F 31.6 °F 35.6 °F 87% 29.40 in 6.0 mi NW 12.7 mph 20.7 mph 0.01 in   Overcast
10:41 PM 37.4 °F 27.5 °F 35.6 °F 93% 29.41 in 7.0 mi NW 18.4 mph 25.3 mph 0.01 in Rain Light Rain
10:52 PM 39.0 °F 30.3 °F 35.1 °F 86% 29.40 in 9.0 mi NW 16.1 mph 21.9 mph 0.01 in   Overcast
11:11 PM 39.2 °F 31.6 °F 35.6 °F 87% 29.41 in 2.5 mi WNW 12.7 mph 23.0 mph 0.00 in Rain Light Rain
11:52 PM 37.4 °F 28.9 °F 35.6 °F 93% 29.42 in 3.0 mi NW 13.8 mph 29.9 mph N/A Rain Light Rain